Location: Monroe
(41.9160°N, 83.3980°W)
Time: 23:40:30
(UTC-05:00)

ISS - Visible Passes

Search period start: 18 January 2017 00:00
Search period end: 28 January 2017 00:00
Orbit: 400 x 410 km, 51.6° (Epoch: 19 January)

Date Brightness Start Highest point End Pass type
(mag) Time Alt. Az. Time Alt. Az. Time Alt. Az.
18 Jan -0.1 05:16:04 14° E 05:16:04 14° E 05:16:42 10° E visible
18 Jan -2.2 06:48:45 21° W 06:50:05 29° SW 06:52:56 10° SSE visible
19 Jan -2.2 05:58:59 38° SSE 05:58:59 38° SSE 06:01:14 10° SE visible
20 Jan -1.1 06:41:59 12° SW 06:41:59 12° SW 06:43:23 10° SSW visible
21 Jan -0.5 05:52:23 11° S 05:52:23 11° S 05:52:38 10° S visible
26 Jan -0.8 19:42:34 10° SSW 19:43:21 15° S 19:43:21 15° S visible
27 Jan -1.4 18:51:18 10° S 18:53:22 16° SE 18:53:43 16° SE visible
27 Jan 0.1 20:26:18 10° WSW 20:26:25 11° WSW 20:26:25 11° WSW visible
